Location: Fengate
(52.5833°N, 0.2167°W)
Time: 01:44:25
(UTC+00:00)

Daily predictions for brighter satellites

Satellite Brightness Start Highest point End
(mag) Time Altitude Azimuth Time Altitude Azimuth Time Altitude Azimuth
Cosmos 2297 Rocket 3.1 00:02:36 10° NNW 00:08:05 47° NE 00:13:30 10° ESE
Cosmos 1782 3.3 00:06:11 10° N 00:09:45 47° ENE 00:11:51 22° SE
Cosmos 2112 Rocket 4.4 00:08:30 10° NNW 00:13:43 61° ENE 00:18:23 13° SE
BREEZE-M DEB (TANK) 3.7 00:11:49 10° WSW 00:15:51 65° SSE 00:30:59 10° E
SL-08 ROCKET BODY 4.4 00:11:57 22° S 00:16:01 79° E 00:21:59 10° NNE
Cosmos 1818 4.2 00:11:25 10° NW 00:16:26 38° WSW 00:19:10 23° S
Cosmos 1975 Rocket 3.9 00:14:30 18° SW 00:17:26 43° WNW 00:21:35 10° N
Cosmos 2058 3.4 00:18:00 24° SSE 00:19:59 47° E 00:23:48 10° NNE
Cosmos 44 3.3 00:19:23 26° S 00:21:30 51° SE 00:25:48 10° NE
Cosmos 2228 3.9 00:19:57 10° NNW 00:23:47 35° W 00:25:54 21° SW
ATLAS 5 CENTAUR R/B 4.3 00:25:29 10° NW 00:27:55 17° N 00:30:37 10° NE
Cosmos 1680 Rocket 3.5 00:23:55 10° NNW 00:29:13 89° ENE 00:33:13 18° SSE
RESURS DK-1 3.0 00:27:06 10° NNW 00:31:01 52° NE 00:34:55 10° SE
Cosmos 2285 Rocket 4.4 00:28:36 14° SW 00:34:07 63° WNW 00:40:31 10° NNE
Cosmos 2098 Rocket 4.2 00:32:50 10° NW 00:34:42 16° W 00:35:31 15° WSW
Cosmos 923 Rocket 4.1 00:31:29 10° NNW 00:36:37 63° WSW 00:39:56 22° S
H-2A R/B 2.8 00:34:14 18° SE 00:36:49 52° ENE 00:40:32 10° N
Cosmos 1656 4.4 00:33:45 20° SSE 00:37:07 41° ESE 00:42:19 10° NE
SeaSat 1 3.5 00:34:21 10° ESE 00:39:00 45° NE 00:43:40 10° NNW
Cosmos 2227 Rocket 3.5 00:34:09 10° NNW 00:39:31 41° NE 00:44:51 10° ESE
Cosmos 1400 Rocket 3.2 00:38:00 10° NNW 00:41:43 46° W 00:43:29 26° SSW
Cosmos 1356 Rocket 4.3 00:40:24 10° N 00:44:11 41° ENE 00:47:29 13° SE
ATLAS 2AS CENTAUR R/B 4.1 00:38:20 10° NW 00:44:48 41° NNE 00:51:08 10° E
BlueWalker 3 1.9 00:41:08 10° W 00:44:49 79° N 00:48:29 10° E
Cosmos 1602 4.2 00:46:12 23° SSE 00:47:44 38° E 00:50:45 10° NNE
Cosmos-2242 4.5 00:45:10 10° N 00:48:56 31° ENE 00:52:43 10° SE
EO 1 Delta rocket 4.4 00:46:46 22° SSW 00:49:26 44° W 00:53:57 10° NNW
Cosmos 1937 Rocket 3.4 00:47:15 22° SSW 00:50:40 88° ESE 00:55:51 10° NNE
ISS -3.9 00:49:28 10° W 00:52:49 76° S 00:56:10 10° E
Aureole 1 Rocket 4.4 00:50:57 16° SW 00:56:02 65° WNW 01:03:17 10° NNE
Cosmos 2315 Rocket 4.1 00:49:57 10° NNW 00:56:21 80° W 01:01:14 18° S
Cosmos 858 Rocket 4.5 00:54:37 22° SSW 00:58:02 78° ESE 01:03:14 10° NNE
Cosmos 1441 Rocket 4.5 00:58:03 16° SE 01:00:09 28° E 01:03:13 10° NNE
Cosmos 1933 3.2 01:00:37 10° N 01:04:31 86° E 01:07:01 21° SSE
Landsat 4 3.0 01:03:33 26° SSE 01:04:57 77° ENE 01:07:48 10° NNW
Cosmos 1900 4.4 01:05:15 18° SW 01:09:00 90° NW 01:14:08 10° NE
DNEPR-1 R/B 4.3 01:06:35 10° WNW 01:10:21 32° WSW 01:12:13 22° SSW
Cosmos 1536 Rocket 4.2 01:07:41 19° SW 01:10:28 45° WNW 01:14:42 10° N
Meteor 2-3 Rocket 4.1 01:10:11 17° S 01:14:41 60° E 01:20:24 10° NNE
CZ-2C R/B 2.8 01:11:03 19° S 01:15:01 62° W 01:20:33 10° NNW
Cosmos 1898 Rocket 4.2 01:14:04 14° SW 01:18:25 47° WNW 01:23:28 10° NNE
Cosmos 1606 Rocket 4.2 01:16:38 10° NNW 01:20:41 40° W 01:23:12 20° SSW
Cosmos 1048 Rocket 4.1 01:15:38 10° NNW 01:21:02 86° ENE 01:26:24 10° SSE
Cosmos 2058 Rocket 3.1 01:17:27 10° N 01:21:53 85° E 01:25:28 16° SSE
Cosmos 1315 Rocket 2.7 01:18:19 10° N 01:22:08 79° ENE 01:25:07 16° SSE
Cosmos 1655 Rocket 4.1 01:20:19 18° SSW 01:25:16 79° W 01:31:43 10° N
IDEFIX/ARIANE 42P 3.2 01:22:52 10° NNE 01:27:55 48° E 01:32:15 14° S
Lacrosse 5 rocket 2.4 01:30:12 10° WNW 01:34:00 45° N 01:37:49 10° E
CZ-2C R/B 3.1 01:30:41 10° N 01:35:34 64° WNW 01:39:09 17° SSW
Cosmos 2219 4.3 01:32:32 10° NNW 01:38:04 47° NE 01:43:33 10° ESE
Meteor 1-26 Rocket 4.1 01:33:39 10° NNW 01:39:06 85° ENE 01:44:30 10° SSE
Cosmos 2360 4.3 01:36:32 17° SSW 01:41:00 80° ESE 01:46:44 10° NNE
CZ-4C R/B 2.7 01:37:23 10° WSW 01:42:00 54° NNW 01:47:59 10° NE
Nimbus 7 Rocket 4.5 01:36:38 10° NNE 01:42:40 84° WNW 01:47:44 15° SSW
ADEOS II 4.1 01:39:46 10° NE 01:43:47 22° E 01:47:46 10° SE
Cosmos 1862 3.9 01:42:22 18° SW 01:44:45 39° WNW 01:48:15 10° N
Cosmos 2263 Rocket 2.8 01:39:50 10° NNW 01:45:27 59° NE 01:51:00 10° SE
Cosmos 1867 3.7 01:40:43 13° SW 01:45:33 77° NW 01:51:04 10° NE
Cosmos 2369 Rocket 4.5 01:42:46 10° WNW 01:46:53 20° NNW 01:51:00 10° NNE
SL-16 R/B 4.4 01:42:57 10° ESE 01:48:20 31° NE 01:53:43 10° N
Gbstr 26 Del rocket 4.1 01:44:02 10° W 01:50:07 66° SSW 01:57:24 10° ESE
Cosmos 2297 Rocket 2.7 01:46:49 10° NW 01:52:04 40° WSW 01:56:44 13° S
CZ-2D R/B 3.4 01:50:34 10° NNE 01:55:23 35° E 02:00:07 10° SSE
SL-19 R/B 4.5 01:49:45 10° NNE 01:55:32 89° ESE 02:00:58 14° SSW
Cosmos 1892 Rocket 4.2 01:55:42 15° SW 01:58:56 43° WNW 02:03:05 10° N
MOZ.5/SAFIR/RUBIN 5/SL-8 3.7 01:56:40 10° S 02:01:16 74° WSW 02:05:57 10° NNW
BREEZE-M DEB (TANK) 2.6 01:59:06 10° W 02:01:29 25° SSW 02:03:24 10° SE
Cosmos 44 4.4 01:58:46 10° W 02:02:47 35° NNW 02:06:55 10° NE
Meteor 2-6 Rocket 4.4 01:59:30 10° N 02:05:11 78° ENE 02:11:00 10° SSE
RESURS DK-1 3.7 02:05:09 10° WNW 02:08:12 21° WSW 02:10:15 15° SSW
Cosmos 1758 Rocket 3.7 02:05:25 12° S 02:09:27 73° E 02:13:53 10° NNE
Cosmos 1602 Rocket 4.2 02:05:25 10° S 02:09:34 52° E 02:13:47 10° NNE
Resurs 1-4 Rocket 2.9 02:04:37 10° NNE 02:09:46 48° E 02:14:53 10° S
Cosmos 1980 Rocket 3.2 02:05:28 10° S 02:10:36 39° ESE 02:15:47 10° NE
H-2A R/B 4.1 02:09:35 12° SW 02:11:29 17° W 02:14:00 10° NW
Nadezhda 1 Rocket 4.0 02:05:20 10° N 02:11:40 86° W 02:17:51 10° S
ATLAS 5 CENTAUR R/B 4.1 02:08:39 10° NW 02:11:56 25° NNE 02:15:46 10° ENE
Cosmos 1626 Rocket 3.5 02:12:06 13° SSW 02:15:58 80° WNW 02:20:22 10° N
SeaSat 1 3.0 02:11:54 10° S 02:16:28 38° WSW 02:21:03 10° NW
H-2A R/B 4.4 02:15:32 10° NE 02:18:31 16° E 02:21:28 10° ESE
Cosmos 1745 Rocket 4.2 02:12:51 10° S 02:19:10 76° E 02:25:32 10° NNE
Cosmos 1697 Rocket 2.7 02:14:32 13° SSW 02:19:42 85° ESE 02:25:25 10° NNE
Cosmos 1656 4.5 02:15:22 10° WSW 02:20:44 45° NW 02:26:04 10° NNE
Cosmos 614 Rocket 3.9 02:16:35 10° NNW 02:21:40 79° WSW 02:26:42 10° SSE
FENGYUN 3A 3.8 02:16:58 10° NNE 02:22:24 80° ESE 02:27:48 10° SSW
BlueWalker 3 1.8 02:18:53 10° WNW 02:22:29 57° SSW 02:26:04 10° SE
Cosmos 2227 Rocket 2.5 02:18:14 10° NW 02:23:40 48° WSW 02:29:05 10° S
MSX 3.9 02:20:03 10° NNE 02:25:46 72° WNW 02:31:23 10° SSW
Cosmos-2242 3.9 02:22:18 10° NNW 02:26:00 31° W 02:29:26 11° SSW
ISS -3.2 02:26:12 10° W 02:29:21 37° SSW 02:32:28 10° SE
Okean 1 3.1 02:26:24 10° NNW 02:30:07 65° W 02:33:49 10° S
H-2A R/B 2.0 02:26:13 10° NNE 02:30:23 90° E 02:34:36 10° SSW
Cosmos 1709 Rocket 4.3 02:27:09 10° S 02:33:28 72° E 02:39:49 10° NNE
Cosmos 1441 Rocket 4.5 02:31:42 10° SW 02:34:39 25° WNW 02:37:38 10° N
ATLAS 2AS CENTAUR R/B 2.7 02:29:31 10° NW 02:36:22 86° SW 02:43:05 10° SE
USA 290 2.3 02:34:05 10° NNW 02:37:23 84° ENE 02:40:41 10° SSE
Okean 1-7 Rocket 3.7 02:35:43 10° S 02:40:09 80° E 02:44:40 10° NNE
SAR-Lupe-3 4.4 02:37:30 10° SSE 02:40:24 69° ENE 02:43:21 10° N
NPP 4.0 02:36:47 10° N 02:42:06 58° WNW 02:47:22 10° SW
ALOS 2.8 02:38:39 10° NNE 02:43:10 57° E 02:47:40 10° S
USA 32 4.4 02:39:47 10° SSW 02:44:53 53° WNW 02:50:01 10° N
Cosmos 1844 Rocket 4.2 02:39:41 10° NNW 02:45:04 42° NE 02:50:24 10° ESE
COSMOS 2441 4.5 02:40:47 10° NNE 02:45:41 76° WNW 02:50:34 10° SSW
Cosmos 2221 2.6 02:42:34 10° NNW 02:46:48 61° W 02:50:59 10° S
Cosmos 1743 3.8 02:47:27 10° SSE 02:50:33 36° E 02:53:40 10° NNE
Cosmos 1125 Rocket 3.7 02:46:39 10° SSW 02:51:55 71° WNW 02:57:12 10° NNE
Cosmos 2151 2.9 02:52:34 10° SSW 02:56:45 82° WNW 03:00:56 10° N
